Terminal Aerodrome Forecast
Issued by NWS Rapid City, SD

Home | Current Version | Previous Version | Graphics & Text | Print | Product List | Glossary On
Versions: 1 2 3 4 5 6 7 8 9 10 11 12 13 14 15 16 17 18 19 20 21 22 23
000
FTUS43 KUNR 150326 AAC
TAFRAP
TAF AMD
KRAP 150326Z 1503/1524 15014KT P6SM BKN080
      TEMPO 1503/1504 VRB30G50KT 1SM +TSRA OVC025CB
     FM150900 10008KT P6SM -SHRA BKN060
     FM151200 02006KT P6SM BKN060=

USA.gov is the U.S. government's official web portal to all federal, state and local government web resources and services.